Buffalo, NY

10:46 AM EST on December 13, 2019 (GMT -0500)
Buffalo Niagara International

Weather History for KBUF - July, 2019

Change the Weather History Date:

Wednesday, July 17, 2019

  Actual Average Record
Temperature  
Mean Temperature 77 °F 71 °F  
Max Temperature 82 °F 80 °F 94 °F (1953)
Min Temperature 72 °F 63 °F 52 °F (1945)
Degree Days  
Heating Degree Days 0 0  
Month to date heating degree days 0 2  
Since 1 June heating degree days 62 66  
Since 1 July heating degree days 0 2  
Cooling Degree Days 12 7  
Month to date cooling degree days 146 108  
Year to date cooling degree days 229 237  
Since 1 June cooling degree days 221 211  
Growing Degree Days 26 (Base 50)    
Moisture  
Dew Point 70 °F    
Average Humidity 79    
Maximum Humidity 93    
Minimum Humidity 65    
Precipitation  
Precipitation 0.35 in 0.10 in 2.70 in (1873)
Month to date precipitation 0.97 1.68  
Year to date precipitation 23.89 20.35  
Snow  
Snow 0.00 in 0.00 in 0.00 in ()
Month to date snowfall 0.0 0.0  
Since 1 June snowfall 0.0 0.0  
Since 1 July snowfall 0.0 0.0  
Snow Depth 0.00 in    
Sea Level Pressure  
Sea Level Pressure 29.90 in    
Wind  
Wind Speed 7 mph (SSW)    
Max Wind Speed 17 mph    
Max Gust Speed 25 mph    
Visibility 9 miles    
Events Rain    
T = Trace of Precipitation, MM = Missing Value Source: NWS Daily Summary

Daily Weather History Graph

Daily Weather History Graph

Search for Another Location

Airport or City:

Astronomy

Jul. 17, 2019 Rise Set
Actual Time 5:51 AM EDT 8:50 PM EDT
Civil Twilight 5:17 AM EDT 9:24 PM EDT
Nautical Twilight 4:34 AM EDT 10:07 PM EDT
Astronomical Twilight 3:43 AM EDT 10:57 PM EDT
Moon 9:37 PM EDT (7/17) 6:21 AM EDT (7/17)
Length of Visible Light 16h 07m
Length of Day
14h 59m
Waxing Gibbous, 99% of the Moon is Illuminated
Jul 17
Waxing Gibbous
Jul 24
Last Quarter
Jul 31
New
Aug 7
First Quarter
Aug 15
Full

Hourly Weather History & Observations

Time (EDT) Temp. Heat Index Dew Point Humidity Pressure Visibility Wind Dir Wind Speed Gust Speed Precip Events Conditions
12:54 AM 73.0 °F - 68.0 °F 84% 29.95 in 10.0 mi SW 13.8 mph - 0.00 in Rain Light Rain
1:54 AM 73.0 °F - 69.1 °F 87% 29.94 in 10.0 mi SW 11.5 mph - 0.02 in Rain Light Rain
2:54 AM 73.0 °F - 70.0 °F 90% 29.91 in 10.0 mi SW 10.4 mph - 0.00 in   Overcast
3:54 AM 72.0 °F - 69.1 °F 91% 29.90 in 10.0 mi SSW 8.1 mph - N/A   Overcast
4:54 AM 72.0 °F - 69.1 °F 91% 29.90 in 10.0 mi SSW 6.9 mph - N/A   Overcast
5:54 AM 73.0 °F - 68.0 °F 84% 29.91 in 10.0 mi SSW 5.8 mph - N/A   Overcast
6:54 AM 73.9 °F - 68.0 °F 82% 29.90 in 10.0 mi SW 8.1 mph - N/A   Overcast
7:24 AM 75.0 °F - 68.0 °F 79% 29.92 in 10.0 mi SW 9.2 mph - 0.00 in Rain Light Rain
7:54 AM 73.9 °F - 68.0 °F 82% 29.91 in 10.0 mi SW 9.2 mph - 0.00 in   Overcast
8:42 AM 73.0 °F - 69.1 °F 87% 29.94 in 8.0 mi SW 12.7 mph - 0.00 in Rain Light Rain
8:51 AM 71.6 °F - 69.8 °F 94% 29.94 in 1.5 mi SW 15.0 mph - 0.00 in Rain Rain
8:54 AM 72.0 °F - 69.1 °F 91% 29.93 in 1.5 mi SW 16.1 mph 24.2 mph 0.02 in Rain Rain
9:15 AM 72.0 °F - 70.0 °F 93% 29.93 in 4.0 mi SW 10.4 mph - 0.12 in Rain Light Rain
9:54 AM 73.0 °F - 71.1 °F 93% 29.92 in 10.0 mi SW 9.2 mph - 0.22 in Rain Light Rain
10:40 AM 73.9 °F - 70.0 °F 87% 29.93 in 10.0 mi SW 9.2 mph - 0.00 in Rain Light Rain
10:54 AM 73.9 °F - 70.0 °F 87% 29.92 in 7.0 mi SW 8.1 mph - 0.01 in Rain Light Rain
11:14 AM 73.9 °F - 70.0 °F 87% 29.93 in 9.0 mi SSW 5.8 mph - 0.01 in Rain Light Rain
11:54 AM 73.0 °F - 69.1 °F 87% 29.92 in 5.0 mi WSW 5.8 mph - 0.06 in Rain Light Rain
12:54 PM 75.0 °F - 71.1 °F 87% 29.91 in 10.0 mi South 5.8 mph - 0.02 in Rain Light Rain
1:44 PM 75.9 °F - 71.1 °F 85% 29.91 in 10.0 mi South 6.9 mph - 0.00 in Rain Light Rain
1:54 PM 75.9 °F - 72.0 °F 87% 29.89 in 10.0 mi SSW 5.8 mph - 0.00 in Rain Light Rain
2:40 PM 75.9 °F - 71.1 °F 85% 29.90 in 10.0 mi West 6.9 mph - 0.00 in Rain Light Rain
2:54 PM 75.9 °F - 71.1 °F 85% 29.89 in 10.0 mi West 8.1 mph - 0.00 in Rain Light Rain
3:00 PM 77.0 °F - 71.1 °F 82% 29.90 in 10.0 mi West 9.2 mph - 0.00 in Rain Light Rain
3:54 PM 79.0 °F - 71.1 °F 77% 29.86 in 10.0 mi Calm Calm - 0.00 in   Mostly Cloudy
4:36 PM 80.1 °F 83.6 °F 71.1 °F 74% 29.87 in 10.0 mi South 3.5 mph - N/A   Mostly Cloudy
4:54 PM 81.0 °F 84.9 °F 71.1 °F 72% 29.85 in 10.0 mi Calm Calm - N/A   Mostly Cloudy
5:54 PM 82.0 °F 85.9 °F 70.0 °F 67% 29.84 in 10.0 mi Calm Calm - N/A   Mostly Cloudy
6:36 PM 81.0 °F 84.4 °F 70.0 °F 69% 29.86 in 10.0 mi ENE 4.6 mph - N/A   Mostly Cloudy
6:54 PM 81.0 °F 84.4 °F 70.0 °F 69% 29.85 in 10.0 mi ENE 4.6 mph - N/A   Mostly Cloudy
7:54 PM 81.0 °F 84.4 °F 70.0 °F 69% 29.86 in 10.0 mi NNE 8.1 mph - N/A   Mostly Cloudy
8:15 PM 79.0 °F - 71.1 °F 77% 29.87 in 10.0 mi NNE 10.4 mph - N/A   Mostly Cloudy
8:33 PM 78.1 °F - 71.1 °F 79% 29.88 in 10.0 mi NE 6.9 mph - N/A   Mostly Cloudy
8:54 PM 77.0 °F - 71.1 °F 82% 29.87 in 10.0 mi NE 6.9 mph - N/A   Partly Cloudy
9:54 PM 75.0 °F - 71.1 °F 87% 29.90 in 10.0 mi NE 5.8 mph - N/A   Partly Cloudy
10:54 PM 73.9 °F - 71.1 °F 91% 29.91 in 10.0 mi NE 6.9 mph - N/A   Partly Cloudy
11:18 PM 73.0 °F - 70.0 °F 90% 29.92 in 10.0 mi NE 5.8 mph - N/A   Partly Cloudy
11:26 PM 73.9 °F - 71.1 °F 91% 29.92 in 10.0 mi ENE 10.4 mph - N/A   Mostly Cloudy
11:54 PM 73.9 °F - 71.1 °F 91% 29.90 in 10.0 mi East 8.1 mph - N/A   Overcast